TimeEDT,TemperatureF,Dew PointF,Humidity,Sea Level PressureIn,VisibilityMPH,Wind Direction,Wind SpeedMPH,Gust SpeedMPH,PrecipitationIn,Events,Conditions,WindDirDegrees,DateUTC
12:53 AM,77.0,72.0,84,29.99,10.0,Calm,Calm,-,N/A,,Clear,0,2013-07-21 04:53:00
1:53 AM,75.9,72.0,87,29.97,10.0,SSE,3.5,-,N/A,,Clear,150,2013-07-21 05:53:00
2:53 AM,75.0,72.0,90,29.97,9.0,SE,3.5,-,N/A,,Clear,140,2013-07-21 06:53:00
3:53 AM,75.0,72.0,90,29.97,9.0,South,4.6,-,N/A,,Clear,170,2013-07-21 07:53:00
4:53 AM,73.9,71.1,91,29.97,10.0,South,3.5,-,N/A,,Clear,190,2013-07-21 08:53:00
5:53 AM,73.9,71.1,91,29.98,10.0,Calm,Calm,-,N/A,,Scattered Clouds,0,2013-07-21 09:53:00
6:53 AM,73.0,70.0,90,29.99,7.0,Calm,Calm,-,N/A,,Mostly Cloudy,0,2013-07-21 10:53:00
7:53 AM,73.9,71.1,91,30.00,10.0,Calm,Calm,-,N/A,,Mostly Cloudy,0,2013-07-21 11:53:00
8:53 AM,75.9,71.1,85,30.01,10.0,SSW,5.8,-,N/A,,Mostly Cloudy,200,2013-07-21 12:53:00
9:53 AM,79.0,71.1,77,30.02,10.0,Calm,Calm,-,N/A,,Mostly Cloudy,0,2013-07-21 13:53:00
10:13 AM,78.8,71.6,78,30.05,10.0,Variable,3.5,-,N/A,,Mostly Cloudy,0,2013-07-21 14:13:00
10:53 AM,81.0,71.1,72,30.02,10.0,Calm,Calm,-,N/A,,Mostly Cloudy,0,2013-07-21 14:53:00
11:53 AM,82.0,72.0,71,30.01,10.0,Calm,Calm,-,N/A,,Mostly Cloudy,0,2013-07-21 15:53:00
12:53 PM,86.0,71.1,61,29.99,10.0,South,6.9,-,N/A,,Mostly Cloudy,190,2013-07-21 16:53:00
1:35 PM,87.8,71.6,58,30.00,10.0,South,9.2,-,N/A,,Mostly Cloudy,190,2013-07-21 17:35:00
1:53 PM,87.1,71.1,59,29.97,10.0,ESE,6.9,-,N/A,,Mostly Cloudy,120,2013-07-21 17:53:00
2:12 PM,82.4,73.4,74,30.00,9.0,WSW,11.5,-,0.00,Rain-Thunderstorm,Thunderstorms and Rain,250,2013-07-21 18:12:00
2:35 PM,78.8,71.6,78,29.99,10.0,NNW,3.5,-,0.09,,Mostly Cloudy,340,2013-07-21 18:35:00
2:53 PM,81.0,72.0,74,29.96,10.0,Calm,Calm,-,0.09,,Mostly Cloudy,0,2013-07-21 18:53:00
3:06 PM,82.4,73.4,74,30.00,10.0,South,8.1,-,N/A,Thunderstorm,Thunderstorm,170,2013-07-21 19:06:00
3:32 PM,77.0,69.8,78,30.00,10.0,WNW,9.2,-,N/A,,Mostly Cloudy,300,2013-07-21 19:32:00
3:53 PM,77.0,70.0,79,29.96,10.0,North,9.2,-,N/A,,Mostly Cloudy,350,2013-07-21 19:53:00
4:53 PM,78.1,71.1,79,29.97,10.0,Calm,Calm,-,0.00,,Mostly Cloudy,0,2013-07-21 20:53:00
5:53 PM,81.0,70.0,69,29.96,10.0,Calm,Calm,-,N/A,,Mostly Cloudy,0,2013-07-21 21:53:00
6:53 PM,81.0,71.1,72,29.94,10.0,Calm,Calm,-,N/A,,Mostly Cloudy,0,2013-07-21 22:53:00
7:53 PM,79.0,72.0,79,29.95,10.0,SSE,4.6,-,N/A,,Mostly Cloudy,160,2013-07-21 23:53:00
8:53 PM,78.1,72.0,81,29.96,10.0,SSE,3.5,-,0.00,,Overcast,150,2013-07-22 00:53:00
9:53 PM,77.0,73.0,88,29.97,10.0,SSE,3.5,-,N/A,,Overcast,160,2013-07-22 01:53:00
10:53 PM,75.9,72.0,87,30.00,10.0,South,4.6,-,N/A,,Overcast,190,2013-07-22 02:53:00
11:53 PM,75.9,72.0,87,29.99,10.0,Calm,Calm,-,N/A,,Overcast,0,2013-07-22 03:53:00